QPF
0.28 0.34 0.44 0.48 0.63 0.70 0.67 0.54 0.46 0.45 0.38 0.30 0.20 0.14 0.11 0.09 0.08 0.04 0.05 0.06 0.04 0.04 0.05 0.03 0.02 0.02 0.02 0.02 0.03 0.02 0.01 0.02 0.02 0.02 0.01 0.01 0.01 0.01 0.01 0.02 0.03 0.06 0.09
0.37 0.46 0.51 0.56 0.59 0.58 0.64 0.60 0.50 0.44 0.39 0.33 0.26 0.18 0.14 0.12 0.09 0.06 0.06 0.07 0.06 0.08 0.08 0.06 0.03 0.02 0.02 0.02 0.02 0.01 0.01 0.01 0.02 0.01 0.01 0.01 0.00 0.01 0.01 0.02 0.04 0.11 0.12
0.45 0.57 0.52 0.50 0.46 0.42 0.46 0.46 0.43 0.44 0.39 0.31 0.23 0.18 0.15 0.10 0.07 0.07 0.06 0.06 0.06 0.09 0.09 0.07 0.03 0.02 0.01 0.01 0.01 0.00 0.01 0.01 0.01 0.01 0.02 0.01 0.00 0.00 0.01 0.01 0.02 0.05 0.09
0.45 0.38 0.27 0.33 0.38 0.32 0.36 0.29 0.29 0.31 0.32 0.30 0.22 0.16 0.12 0.09 0.08 0.06 0.07 0.09 0.10 0.09 0.07 0.04 0.02 0.01 0.00 0.00 0.00 0.00 0.00 0.00 0.00 0.01 0.01 0.02 0.02 0.02 0.01 0.01 0.01 0.01 0.04
0.30 0.17 0.13 0.17 0.19 0.15 0.20 0.20 0.20 0.23 0.31 0.34 0.26 0.19 0.15 0.12 0.10 0.10 0.10 0.11 0.09 0.07 0.05 0.04 0.02 0.01 0.01 0.01 0.00 0.00 0.00 0.00 0.00 0.00 0.01 0.01 0.02 0.02 0.01 0.01 0.01 0.01 0.01
0.11 0.10 0.11 0.11 0.14 0.21 0.22 0.25 0.27 0.29 0.30 0.26 0.22 0.21 0.21 0.19 0.17 0.13 0.11 0.11 0.09 0.07 0.06 0.04 0.03 0.02 0.02 0.02 0.01 0.01 0.00 0.00 0.00 0.00 0.00 0.00 0.01 0.01 0.01 0.01 0.01 0.01 0.01
0.07 0.08 0.13 0.14 0.15 0.15 0.15 0.17 0.17 0.16 0.18 0.18 0.18 0.18 0.18 0.18 0.18 0.15 0.12 0.11 0.11 0.09 0.07 0.06 0.04 0.04 0.03 0.03 0.02 0.01 0.01 0.00 0.00 0.00 0.00 0.00 0.00 0.01 0.01 0.01 0.01 0.01 0.01
0.06 0.05 0.09 0.12 0.08 0.07 0.08 0.09 0.08 0.10 0.13 0.12 0.13 0.13 0.12 0.12 0.13 0.14 0.13 0.12 0.11 0.10 0.11 0.10 0.09 0.08 0.07 0.06 0.04 0.02 0.01 0.01 0.00 0.00 0.00 0.00 0.00 0.01 0.01 0.01 0.02 0.02 0.01
0.05 0.04 0.03 0.03 0.02 0.03 0.03 0.03 0.03 0.04 0.07 0.07 0.07 0.08 0.08 0.09 0.08 0.08 0.08 0.08 0.08 0.08 0.11 0.12 0.13 0.13 0.12 0.11 0.07 0.04 0.02 0.01 0.00 0.00 0.00 0.00 0.00 0.00 0.01 0.01 0.02 0.03 0.02
0.05 0.03 0.01 0.01 0.01 0.00 0.00 0.00 0.01 0.01 0.02 0.02 0.03 0.04 0.04 0.05 0.05 0.05 0.05 0.05 0.06 0.07 0.08 0.09 0.10 0.11 0.10 0.09 0.09 0.06 0.04 0.03 0.01 0.01 0.00 0.00 0.00 0.00 0.00 0.01 0.01 0.02 0.04
0.02 0.01 0.01 0.00 0.00 0.00 0.00 0.00 0.00 0.00 0.01 0.01 0.01 0.01 0.01 0.02 0.02 0.03 0.03 0.03 0.04 0.05 0.06 0.07 0.08 0.09 0.09 0.08 0.08 0.07 0.06 0.04 0.02 0.01 0.01 0.00 0.00 0.00 0.00 0.01 0.01 0.02 0.04
0.01 0.00 0.00 0.00 0.00 0.00 0.00 0.00 0.00 0.00 0.00 0.00 0.00 0.00 0.00 0.01 0.01 0.01 0.02 0.02 0.02 0.03 0.03 0.04 0.05 0.06 0.07 0.08 0.09 0.07 0.06 0.05 0.04 0.03 0.02 0.01 0.01 0.01 0.00 0.01 0.01 0.03 0.03
0.00 0.00 0.00 0.00 0.00 0.00 0.00 0.00 0.00 0.00 0.00 0.00 0.00 0.00 0.00 0.00 0.00 0.00 0.01 0.01 0.01 0.02 0.02 0.03 0.03 0.04 0.05 0.06 0.07 0.07 0.06 0.06 0.05 0.04 0.04 0.03 0.02 0.01 0.00 0.00 0.01 0.02 0.02
0.00 0.00 0.00 0.00 0.00 0.00 0.00 0.00 0.00 0.00 0.00 0.00 0.00 0.00 0.00 0.00 0.00 0.00 0.00 0.00 0.01 0.01 0.01 0.02 0.02 0.03 0.03 0.05 0.06 0.07 0.08 0.06 0.05 0.04 0.03 0.02 0.01 0.01 0.00 0.00 0.01 0.02 0.02
0.00 0.00 0.00 0.00 0.00 0.00 0.00 0.00 0.00 0.00 0.00 0.00 0.00 0.00 0.00 0.00 0.00 0.00 0.00 0.00 0.00 0.00 0.01 0.01 0.01 0.02 0.03 0.04 0.06 0.07 0.08 0.07 0.06 0.04 0.03 0.02 0.02 0.01 0.01 0.01 0.01 0.02 0.01
0.00 0.00 0.00 0.00 0.00 0.00 0.00 0.00 0.00 0.00 0.00 0.00 0.00 0.00 0.00 0.00 0.00 0.00 0.00 0.00 0.00 0.00 0.00 0.01 0.01 0.01 0.02 0.03 0.05 0.07 0.08 0.09 0.08 0.05 0.03 0.02 0.02 0.01 0.01 0.00 0.01 0.01 0.01
0.00 0.00 0.00 0.00 0.00 0.00 0.00 0.00 0.00 0.00 0.00 0.00 0.00 0.00 0.00 0.00 0.00 0.00 0.00 0.00 0.00 0.00 0.00 0.00 0.00 0.01 0.01 0.02 0.04 0.05 0.07 0.08 0.08 0.07 0.05 0.03 0.01 0.01 0.00 0.00 0.01 0.01 0.01
0.00 0.00 0.00 0.00 0.00 0.00 0.00 0.00 0.00 0.00 0.00 0.00 0.00 0.00 0.00 0.00 0.00 0.00 0.00 0.00 0.00 0.00 0.00 0.00 0.00 0.00 0.01 0.01 0.02 0.04 0.05 0.07 0.08 0.08 0.06 0.04 0.02 0.01 0.01 0.01 0.01 0.01 0.01
0.00 0.00 0.00 0.00 0.00 0.00 0.00 0.00 0.00 0.00 0.00 0.00 0.00 0.00 0.00 0.00 0.00 0.00 0.00 0.00 0.01 0.00 0.00 0.00 0.00 0.00 0.01 0.01 0.02 0.03 0.04 0.07 0.08 0.10 0.09 0.07 0.03 0.02 0.01 0.01 0.01 0.01 0.01
0.00 0.00 0.00 0.00 0.00 0.00 0.00 0.00 0.00 0.00 0.00 0.00 0.00 0.00 0.01 0.01 0.01 0.00 0.00 0.01 0.01 0.00 0.00 0.00 0.00 0.01 0.01 0.01 0.01 0.03 0.04 0.07 0.10 0.11 0.12 0.11 0.06 0.04 0.03 0.01 0.01 0.02 0.02
0.00 0.00 0.00 0.00 0.00 0.00 0.00 0.00 0.01 0.01 0.01 0.01 0.01 0.01 0.01 0.01 0.01 0.01 0.01 0.01 0.01 0.00 0.00 0.00 0.00 0.01 0.01 0.01 0.01 0.02 0.04 0.07 0.13 0.15 0.15 0.13 0.11 0.06 0.04 0.03 0.02 0.02 0.02
0.00 0.00 0.00 0.00 0.00 0.00 0.01 0.01 0.01 0.01 0.01 0.02 0.02 0.01 0.01 0.01 0.01 0.01 0.01 0.02 0.02 0.01 0.01 0.01 0.01 0.01 0.01 0.01 0.01 0.02 0.04 0.06 0.13 0.20 0.22 0.16 0.14 0.09 0.06 0.04 0.03 0.03 0.04
0.00 0.00 0.00 0.00 0.00 0.00 0.01 0.02 0.02 0.02 0.03 0.03 0.02 0.01 0.01 0.01 0.01 0.01 0.01 0.02 0.02 0.02 0.01 0.02 0.02 0.02 0.02 0.02 0.02 0.03 0.05 0.08 0.13 0.21 0.28 0.24 0.18 0.12 0.07 0.05 0.05 0.04 0.05
0.00 0.00 0.00 0.01 0.01 0.01 0.01 0.02 0.02 0.03 0.04 0.03 0.02 0.02 0.02 0.02 0.01 0.02 0.02 0.02 0.02 0.02 0.02 0.03 0.03 0.02 0.02 0.02 0.03 0.04 0.06 0.11 0.14 0.22 0.30 0.30 0.21 0.13 0.08 0.05 0.05 0.05 0.05
0.00 0.00 0.01 0.01 0.01 0.01 0.01 0.02 0.04 0.05 0.05 0.04 0.03 0.03 0.03 0.03 0.02 0.02 0.02 0.02 0.02 0.02 0.01 0.02 0.02 0.02 0.02 0.02 0.04 0.06 0.08 0.12 0.16 0.22 0.29 0.33 0.26 0.15 0.09 0.06 0.05 0.06 0.06
0.00 0.01 0.01 0.01 0.02 0.02 0.03 0.04 0.06 0.07 0.08 0.06 0.05 0.04 0.04 0.04 0.03 0.03 0.02 0.02 0.01 0.01 0.00 0.01 0.01 0.01 0.01 0.02 0.03 0.05 0.10 0.13 0.17 0.22 0.25 0.29 0.29 0.18 0.09 0.06 0.05 0.05 0.05
MSLP
1009.17 1009.17 1009.11 1008.96 1008.73 1008.45 1008.14 1007.84 1007.60 1007.45 1007.41 1007.49 1007.68 1007.96 1008.29 1008.64 1008.97 1009.26 1009.49 1009.68 1009.83 1009.97 1010.12 1010.30 1010.52 1010.77 1011.03 1011.27 1011.48 1011.64 1011.72 1011.72 1011.67 1011.56 1011.43 1011.27 1011.11 1010.95 1010.79 1010.63 1010.47 1010.32 1010.19
1010.08 1010.07 1009.99 1009.84 1009.61 1009.31 1008.99 1008.68 1008.42 1008.24 1008.17 1008.22 1008.35 1008.56 1008.81 1009.05 1009.27 1009.45 1009.58 1009.67 1009.76 1009.86 1010.00 1010.18 1010.41 1010.67 1010.94 1011.20 1011.41 1011.57 1011.67 1011.70 1011.67 1011.61 1011.52 1011.42 1011.29 1011.15 1010.98 1010.78 1010.56 1010.32 1010.09
1010.74 1010.71 1010.64 1010.52 1010.34 1010.10 1009.82 1009.55 1009.32 1009.15 1009.08 1009.09 1009.18 1009.31 1009.46 1009.60 1009.70 1009.75 1009.77 1009.76 1009.77 1009.81 1009.90 1010.05 1010.26 1010.50 1010.75 1011.00 1011.21 1011.37 1011.48 1011.55 1011.57 1011.57 1011.55 1011.51 1011.44 1011.33 1011.17 1010.96 1010.69 1010.38 1010.05
1011.12 1011.07 1011.04 1010.99 1010.89 1010.74 1010.55 1010.36 1010.18 1010.06 1009.99 1009.99 1010.03 1010.10 1010.16 1010.19 1010.17 1010.11 1010.01 1009.91 1009.82 1009.78 1009.81 1009.90 1010.05 1010.25 1010.47 1010.68 1010.87 1011.03 1011.15 1011.25 1011.33 1011.40 1011.45 1011.48 1011.48 1011.42 1011.29 1011.08 1010.79 1010.43 1010.02
1011.27 1011.22 1011.23 1011.25 1011.25 1011.21 1011.13 1011.04 1010.94 1010.86 1010.81 1010.80 1010.81 1010.82 1010.80 1010.74 1010.63 1010.46 1010.27 1010.07 1009.90 1009.78 1009.72 1009.74 1009.82 1009.95 1010.11 1010.28 1010.43 1010.57 1010.70 1010.83 1010.95 1011.08 1011.20 1011.30 1011.37 1011.38 1011.29 1011.10 1010.81 1010.42 1009.98
1011.27 1011.22 1011.27 1011.37 1011.47 1011.53 1011.56 1011.55 1011.52 1011.48 1011.45 1011.44 1011.41 1011.38 1011.30 1011.18 1010.99 1010.76 1010.50 1010.23 1009.99 1009.79 1009.66 1009.60 1009.60 1009.65 1009.74 1009.84 1009.95 1010.06 1010.18 1010.31 1010.46 1010.63 1010.80 1010.97 1011.09 1011.15 1011.12 1010.97 1010.70 1010.33 1009.88
1011.23 1011.19 1011.27 1011.43 1011.60 1011.74 1011.84 1011.89 1011.90 1011.89 1011.87 1011.84 1011.80 1011.73 1011.62 1011.46 1011.24 1010.97 1010.67 1010.36 1010.07 1009.82 1009.62 1009.49 1009.42 1009.39 1009.40 1009.43 1009.48 1009.55 1009.64 1009.76 1009.91 1010.09 1010.28 1010.48 1010.65 1010.75 1010.77 1010.67 1010.45 1010.13 1009.71
1011.25 1011.20 1011.30 1011.48 1011.68 1011.86 1011.98 1012.06 1012.08 1012.07 1012.04 1012.00 1011.94 1011.86 1011.74 1011.57 1011.34 1011.07 1010.77 1010.45 1010.14 1009.86 1009.63 1009.44 1009.30 1009.20 1009.14 1009.10 1009.08 1009.09 1009.13 1009.21 1009.34 1009.50 1009.69 1009.89 1010.07 1010.20 1010.26 1010.22 1010.06 1009.80 1009.45
1011.36 1011.31 1011.41 1011.57 1011.76 1011.91 1012.02 1012.07 1012.07 1012.04 1011.99 1011.93 1011.86 1011.78 1011.66 1011.51 1011.31 1011.07 1010.79 1010.49 1010.19 1009.91 1009.66 1009.44 1009.25 1009.09 1008.96 1008.86 1008.78 1008.72 1008.70 1008.72 1008.79 1008.91 1009.06 1009.23 1009.40 1009.54 1009.63 1009.63 1009.55 1009.37 1009.10
1011.60 1011.53 1011.58 1011.70 1011.82 1011.91 1011.95 1011.94 1011.89 1011.82 1011.74 1011.67 1011.59 1011.51 1011.42 1011.30 1011.14 1010.94 1010.71 1010.46 1010.20 1009.94 1009.68 1009.45 1009.23 1009.03 1008.85 1008.69 1008.54 1008.42 1008.33 1008.28 1008.28 1008.34 1008.43 1008.56 1008.69 1008.82 1008.91 1008.95 1008.92 1008.82 1008.65
1011.91 1011.80 1011.78 1011.80 1011.82 1011.81 1011.76 1011.67 1011.56 1011.44 1011.32 1011.23 1011.15 1011.09 1011.02 1010.94 1010.83 1010.69 1010.52 1010.33 1010.11 1009.88 1009.65 1009.42 1009.19 1008.97 1008.75 1008.53 1008.33 1008.15 1007.99 1007.88 1007.81 1007.79 1007.82 1007.88 1007.97 1008.06 1008.15 1008.20 1008.21 1008.17 1008.08
1012.23 1012.06 1011.94 1011.84 1011.73 1011.59 1011.44 1011.26 1011.08 1010.91 1010.77 1010.67 1010.59 1010.54 1010.50 1010.45 1010.39 1010.31 1010.19 1010.06 1009.89 1009.71 1009.51 1009.29 1009.07 1008.83 1008.58 1008.33 1008.09 1007.85 1007.64 1007.47 1007.34 1007.25 1007.22 1007.22 1007.26 1007.31 1007.36 1007.41 1007.43 1007.43 1007.41
1012.47 1012.20 1011.96 1011.72 1011.48 1011.23 1010.97 1010.71 1010.48 1010.28 1010.12 1010.00 1009.93 1009.89 1009.86 1009.84 1009.82 1009.78 1009.72 1009.63 1009.52 1009.38 1009.21 1009.02 1008.80 1008.56 1008.30 1008.03 1007.75 1007.48 1007.23 1007.01 1006.84 1006.71 1006.62 1006.58 1006.56 1006.57 1006.59 1006.60 1006.62 1006.63 1006.64
1012.54 1012.16 1011.79 1011.42 1011.06 1010.70 1010.35 1010.04 1009.77 1009.55 1009.39 1009.27 1009.20 1009.16 1009.14 1009.13 1009.13 1009.11 1009.09 1009.04 1008.97 1008.87 1008.75 1008.58 1008.38 1008.15 1007.88 1007.59 1007.30 1007.00 1006.73 1006.49 1006.29 1006.14 1006.02 1005.94 1005.89 1005.86 1005.84 1005.82 1005.80 1005.79 1005.80
1012.40 1011.91 1011.41 1010.93 1010.46 1010.02 1009.63 1009.29 1009.00 1008.78 1008.61 1008.50 1008.42 1008.38 1008.35 1008.34 1008.34 1008.34 1008.33 1008.32 1008.28 1008.22 1008.13 1008.00 1007.81 1007.59 1007.32 1007.03 1006.72 1006.42 1006.14 1005.89 1005.69 1005.53 1005.42 1005.33 1005.26 1005.20 1005.14 1005.08 1005.02 1004.98 1004.96
1012.04 1011.44 1010.84 1010.27 1009.73 1009.25 1008.83 1008.49 1008.21 1008.00 1007.84 1007.73 1007.64 1007.58 1007.54 1007.51 1007.49 1007.49 1007.49 1007.50 1007.50 1007.47 1007.42 1007.31 1007.15 1006.94 1006.67 1006.38 1006.07 1005.77 1005.49 1005.25 1005.06 1004.92 1004.82 1004.74 1004.68 1004.61 1004.53 1004.43 1004.33 1004.24 1004.19
1011.50 1010.82 1010.15 1009.52 1008.95 1008.45 1008.04 1007.71 1007.45 1007.26 1007.11 1006.99 1006.89 1006.80 1006.73 1006.67 1006.63 1006.62 1006.63 1006.65 1006.68 1006.68 1006.66 1006.58 1006.44 1006.24 1005.99 1005.69 1005.38 1005.08 1004.81 1004.59 1004.43 1004.31 1004.25 1004.20 1004.16 1004.11 1004.03 1003.92 1003.79 1003.67 1003.58
1010.85 1010.12 1009.41 1008.76 1008.18 1007.70 1007.31 1007.00 1006.77 1006.59 1006.45 1006.31 1006.19 1006.07 1005.96 1005.87 1005.80 1005.78 1005.79 1005.82 1005.87 1005.91 1005.91 1005.86 1005.75 1005.56 1005.31 1005.02 1004.71 1004.41 1004.15 1003.95 1003.82 1003.75 1003.73 1003.73 1003.73 1003.72 1003.66 1003.57 1003.45 1003.32 1003.21
1010.21 1009.45 1008.73 1008.08 1007.51 1007.05 1006.68 1006.40 1006.19 1006.02 1005.86 1005.71 1005.56 1005.40 1005.25 1005.12 1005.04 1004.99 1005.00 1005.05 1005.11 1005.18 1005.21 1005.19 1005.09 1004.92 1004.68 1004.39 1004.08 1003.79 1003.54 1003.37 1003.26 1003.24 1003.27 1003.33 1003.39 1003.44 1003.44 1003.39 1003.31 1003.21 1003.12
1009.64 1008.87 1008.16 1007.52 1006.97 1006.53 1006.18 1005.91 1005.70 1005.52 1005.35 1005.18 1004.99 1004.79 1004.61 1004.45 1004.33 1004.27 1004.28 1004.33 1004.41 1004.49 1004.54 1004.54 1004.46 1004.31 1004.08 1003.80 1003.50 1003.22 1002.99 1002.84 1002.77 1002.78 1002.86 1002.99 1003.13 1003.25 1003.33 1003.37 1003.36 1003.33 1003.30
1009.18 1008.43 1007.73 1007.10 1006.56 1006.13 1005.78 1005.51 1005.29 1005.09 1004.89 1004.68 1004.46 1004.23 1004.01 1003.82 1003.68 1003.61 1003.60 1003.65 1003.74 1003.83 1003.90 1003.91 1003.85 1003.71 1003.50 1003.24 1002.96 1002.70 1002.49 1002.36 1002.32 1002.38 1002.51 1002.70 1002.92 1003.13 1003.31 1003.45 1003.55 1003.62 1003.69
1008.86 1008.13 1007.43 1006.80 1006.26 1005.81 1005.44 1005.15 1004.90 1004.67 1004.44 1004.20 1003.95 1003.69 1003.45 1003.24 1003.08 1002.99 1002.97 1003.00 1003.08 1003.17 1003.24 1003.27 1003.22 1003.11 1002.92 1002.69 1002.44 1002.21 1002.03 1001.93 1001.93 1002.03 1002.21 1002.45 1002.74 1003.04 1003.32 1003.58 1003.81 1004.01 1004.20
1008.66 1007.92 1007.22 1006.57 1006.01 1005.52 1005.12 1004.79 1004.50 1004.24 1003.98 1003.71 1003.44 1003.17 1002.91 1002.68 1002.51 1002.40 1002.35 1002.37 1002.43 1002.50 1002.57 1002.60 1002.57 1002.48 1002.33 1002.14 1001.94 1001.75 1001.62 1001.56 1001.59 1001.72 1001.94 1002.24 1002.58 1002.96 1003.34 1003.71 1004.06 1004.39 1004.71
1008.53 1007.78 1007.05 1006.38 1005.77 1005.24 1004.79 1004.40 1004.07 1003.78 1003.49 1003.21 1002.93 1002.65 1002.39 1002.16 1001.97 1001.84 1001.77 1001.76 1001.79 1001.84 1001.90 1001.93 1001.92 1001.87 1001.76 1001.63 1001.49 1001.36 1001.27 1001.26 1001.33 1001.49 1001.73 1002.06 1002.44 1002.87 1003.32 1003.78 1004.24 1004.70 1005.15
1008.43 1007.66 1006.89 1006.17 1005.51 1004.92 1004.41 1003.98 1003.61 1003.29 1002.99 1002.71 1002.43 1002.16 1001.91 1001.68 1001.48 1001.33 1001.24 1001.19 1001.19 1001.23 1001.27 1001.30 1001.32 1001.30 1001.26 1001.19 1001.12 1001.06 1001.04 1001.07 1001.17 1001.35 1001.61 1001.94 1002.34 1002.79 1003.28 1003.80 1004.34 1004.89 1005.43
1008.34 1007.53 1006.72 1005.94 1005.23 1004.58 1004.02 1003.55 1003.14 1002.80 1002.50 1002.23 1001.97 1001.72 1001.48 1001.26 1001.06 1000.90 1000.79 1000.71 1000.69 1000.70 1000.73 1000.78 1000.82 1000.86 1000.88 1000.89 1000.90 1000.92 1000.96 1001.03 1001.16 1001.35 1001.60 1001.92 1002.30 1002.74 1003.23 1003.77 1004.34 1004.94 1005.55
Thickness
5780 5782 5779 5776 5770 5762 5759 5761 5760 5763 5761 5755 5751 5749 5746 5746 5746 5745 5744 5742 5740 5738 5735 5733 5732 5730 5727 5726 5725 5724 5723 5722 5723 5721 5721 5725 5729 5731 5732 5732 5730 5729 5728
5770 5767 5766 5764 5760 5753 5749 5750 5750 5751 5749 5747 5743 5742 5740 5739 5738 5737 5736 5735 5734 5732 5731 5728 5726 5725 5723 5722 5721 5719 5717 5716 5717 5714 5711 5710 5715 5722 5728 5727 5727 5726 5725
5754 5753 5753 5749 5749 5745 5742 5740 5737 5739 5739 5736 5736 5734 5731 5729 5726 5726 5727 5728 5728 5727 5725 5723 5722 5721 5719 5717 5716 5715 5713 5709 5710 5710 5707 5702 5700 5706 5715 5719 5721 5720 5720
5746 5743 5741 5739 5738 5736 5735 5731 5730 5730 5729 5728 5726 5721 5718 5715 5716 5718 5720 5721 5721 5720 5719 5718 5717 5716 5715 5713 5712 5711 5710 5707 5704 5704 5705 5704 5702 5699 5700 5707 5712 5715 5715
5735 5733 5731 5730 5729 5728 5726 5723 5720 5719 5718 5717 5714 5710 5708 5708 5709 5710 5711 5712 5712 5711 5711 5711 5711 5710 5709 5708 5707 5706 5705 5703 5701 5699 5699 5699 5698 5697 5694 5696 5700 5705 5708
5725 5723 5722 5721 5719 5719 5715 5710 5709 5706 5705 5703 5702 5700 5696 5696 5697 5698 5698 5700 5700 5701 5703 5704 5704 5703 5702 5702 5701 5700 5699 5698 5698 5696 5695 5693 5692 5691 5690 5691 5693 5695 5700
5715 5714 5711 5710 5709 5706 5703 5700 5697 5694 5692 5690 5689 5688 5685 5685 5685 5686 5687 5687 5688 5689 5692 5694 5694 5695 5695 5695 5695 5694 5693 5693 5692 5692 5692 5691 5691 5690 5689 5687 5689 5690 5694
5705 5705 5703 5701 5698 5695 5691 5688 5684 5681 5679 5677 5675 5674 5673 5672 5672 5673 5674 5674 5675 5677 5680 5681 5684 5686 5687 5687 5686 5686 5687 5687 5687 5688 5688 5688 5688 5688 5687 5685 5684 5685 5687
5696 5694 5692 5690 5687 5683 5680 5677 5673 5669 5666 5664 5662 5660 5659 5658 5658 5658 5659 5659 5661 5664 5666 5669 5671 5674 5676 5677 5677 5677 5679 5680 5681 5682 5683 5683 5684 5684 5684 5684 5682 5680 5681
5686 5685 5682 5679 5676 5673 5669 5665 5661 5656 5653 5651 5648 5648 5645 5644 5643 5643 5643 5644 5646 5648 5651 5654 5656 5659 5662 5665 5666 5668 5671 5671 5674 5676 5677 5678 5679 5679 5680 5680 5679 5679 5678
5676 5673 5670 5667 5663 5659 5655 5651 5647 5643 5640 5637 5635 5632 5630 5629 5628 5627 5627 5629 5630 5632 5635 5638 5640 5643 5647 5651 5654 5657 5660 5662 5665 5668 5670 5672 5674 5674 5675 5675 5675 5675 5675
5668 5663 5658 5653 5648 5644 5639 5636 5632 5628 5625 5622 5619 5616 5614 5612 5611 5610 5611 5612 5614 5616 5618 5620 5624 5627 5632 5636 5640 5643 5648 5652 5655 5659 5661 5664 5668 5669 5670 5670 5671 5672 5672
5656 5651 5646 5640 5635 5630 5625 5621 5616 5612 5610 5606 5602 5599 5597 5594 5593 5593 5594 5595 5596 5598 5600 5602 5605 5610 5614 5619 5624 5630 5635 5641 5646 5650 5653 5657 5660 5662 5663 5665 5666 5667 5669
5642 5636 5630 5624 5620 5615 5611 5606 5602 5598 5594 5590 5585 5582 5579 5578 5576 5576 5575 5576 5577 5579 5581 5584 5587 5592 5597 5602 5608 5614 5621 5628 5634 5640 5645 5650 5654 5656 5658 5660 5661 5663 5664
5631 5625 5618 5613 5607 5602 5597 5593 5588 5585 5580 5575 5571 5567 5565 5563 5561 5559 5559 5559 5560 5561 5563 5565 5569 5573 5579 5586 5592 5598 5606 5613 5620 5628 5635 5641 5647 5651 5653 5655 5656 5657 5658
5620 5615 5609 5602 5596 5591 5586 5582 5577 5573 5568 5563 5560 5557 5553 5550 5548 5547 5546 5546 5546 5547 5547 5549 5552 5556 5563 5570 5575 5582 5590 5598 5606 5614 5622 5630 5637 5642 5646 5650 5652 5653 5655
5610 5604 5598 5591 5586 5581 5576 5570 5566 5563 5558 5553 5551 5547 5544 5541 5540 5539 5538 5537 5537 5537 5537 5538 5540 5543 5547 5553 5559 5567 5574 5583 5592 5601 5609 5618 5627 5633 5637 5642 5645 5648 5651
5602 5595 5588 5582 5577 5571 5565 5560 5556 5552 5547 5544 5541 5539 5536 5534 5533 5532 5531 5531 5531 5530 5531 5532 5533 5534 5538 5542 5547 5553 5560 5569 5578 5587 5596 5605 5615 5622 5627 5632 5636 5640 5643
5593 5585 5578 5572 5566 5559 5554 5549 5545 5541 5538 5535 5532 5530 5528 5527 5526 5525 5524 5524 5524 5525 5525 5527 5528 5529 5531 5535 5538 5543 5547 5555 5565 5575 5584 5594 5604 5613 5619 5624 5628 5631 5635
5582 5574 5568 5561 5555 5550 5544 5538 5535 5531 5528 5526 5524 5522 5520 5518 5518 5518 5518 5519 5519 5520 5521 5522 5523 5525 5527 5530 5532 5535 5538 5545 5553 5563 5573 5584 5594 5602 5609 5616 5620 5624 5627
5572 5565 5557 5550 5544 5540 5534 5528 5524 5520 5518 5516 5514 5513 5511 5510 5510 5510 5511 5512 5512 5513 5515 5516 5519 5520 5523 5526 5528 5530 5531 5536 5543 5552 5562 5573 5583 5591 5600 5607 5613 5618 5621
5563 5555 5547 5541 5536 5530 5523 5519 5515 5513 5510 5507 5505 5504 5503 5502 5505 5504 5504 5505 5506 5506 5508 5510 5512 5515 5518 5521 5524 5526 5527 5530 5535 5543 5553 5563 5572 5581 5589 5597 5604 5609 5612
5553 5546 5539 5533 5527 5521 5515 5510 5508 5505 5502 5499 5497 5496 5495 5495 5495 5495 5496 5498 5499 5500 5503 5504 5506 5509 5513 5517 5520 5521 5523 5525 5528 5536 5545 5554 5563 5571 5579 5587 5594 5600 5604
5545 5539 5532 5525 5520 5515 5509 5503 5500 5497 5494 5491 5489 5488 5488 5488 5488 5488 5489 5491 5493 5495 5498 5500 5502 5504 5507 5511 5513 5515 5517 5519 5522 5528 5537 5545 5554 5564 5572 5578 5585 5592 5597
5539 5532 5524 5518 5514 5509 5504 5499 5494 5490 5487 5485 5483 5482 5482 5482 5482 5482 5484 5486 5489 5492 5494 5497 5499 5501 5503 5508 5511 5511 5512 5515 5518 5523 5530 5538 5548 5556 5565 5572 5578 5583 5588
5533 5527 5520 5514 5509 5504 5499 5494 5490 5485 5482 5480 5479 5478 5477 5477 5478 5478 5480 5483 5486 5489 5492 5495 5497 5500 5503 5506 5507 5508 5509 5510 5513 5518 5526 5535 5544 5553 5561 5568 5572 5577 5581